Hourly Data Report for November 23, 2017

All times are specified in Local Standard Time (LST). Add 1 hour to adjust for Daylight Saving Time where and when it is observed.

GREENWOOD A
NOVA SCOTIA

44°59'00.000" N
64°55'00.000" W
28.00 m
8202000
71397
YZX

Download Data

Hourly Data (November 2017)
Hourly Data Report for November 23, 2017
Temp Definition
°C
Dew Point Temp Definition
°C
Rel Hum Definition
%
Wind Dir Definition
10's deg

Wind Spd Definition
km/h
Visibility Definition
km
Stn Press Definition
kPa
Hmdx Definition


Wind Chill Definition


Weather Definition


TIME
00:00 12.5 12.2 98 5 15 4.0 99.20     Moderate Rain,Fog
01:00 12.5 12.0 97 28 4 4.8 98.90     Rain,Fog
02:00 6.0 5.4 96 31 35 4.0 99.02     Rain,Fog
03:00 5.7 4.7 93 33 33 4.8 99.16     Rain,Fog
04:00 5.0 3.7 91 31 33 4.8 99.35     Rain,Fog
05:00 3.2 2.3 94 29 35 4.8 99.70     Rain,Fog
06:00 4.2 2.4 88 28 37 4.8 99.89     Rain,Fog
07:00 3.4 1.6 88 28 30 24.1 100.08     Cloudy
08:00 2.9 0.3 83 27 32 24.1 100.25     Cloudy
09:00 2.8 -0.6 78 29 19 24.1 100.39     Mostly Cloudy
10:00 2.5 -2.6 69 31 37 24.1 100.50     Mainly Clear
11:00 2.2 -3.0 68 27 37 24.1 100.65     Mainly Clear
12:00 2.4 -2.8 68 28 37 24.1 100.64     Mainly Clear
13:00 2.5 -2.3 71 27 32 24.1 100.63     Mostly Cloudy
14:00 2.7 -3.3 65 28 26 24.1 100.66     Mainly Clear
15:00 2.1 -3.1 68 27 22 24.1 100.65     Mostly Cloudy
16:00 2.1 -2.8 70 27 19 24.1 100.72     Mostly Cloudy
17:00 1.0 -3.6 71 26 19 24.1 100.79     Mainly Clear
18:00 0.7 -3.4 74 25 19 24.1 100.83     Mainly Clear
19:00 0.7 -3.1 76 24 7 24.1 100.81     Mostly Cloudy
20:00 0.9 -2.9 76 26 13 24.1 100.83     Mostly Cloudy
21:00 0.9 -3.4 73 29 17 24.1 100.82     Mostly Cloudy
22:00 0.9 -2.9 76 29 13 24.1 100.81     Mainly Clear
23:00 0.7 -2.8 77 30 13 24.1 100.77     Mostly Cloudy

Notes on Data Quality.

Legend

  • E = Estimated
  • M = Missing
  • NA = Not Available
  • ‡ = Partner data that is not subject to review by the National Climate Archives
Date modified: